Weather History for St. Petersburg, FL

Change the Weather History Date:

Saturday, July 13, 2013

  Actual Average Record
Temperature  
Mean Temperature 82 °F -  
Max Temperature 87 °F 90 °F 97 °F (1987)
Min Temperature 77 °F 76 °F 69 °F (1986)
Cooling Degree Days 16    
Growing Degree Days 32 (Base 50)    
Moisture  
Dew Point 74 °F    
Average Humidity 80    
Maximum Humidity 90    
Minimum Humidity 67    
Precipitation  
Precipitation 0.13 in - - ()
Sea Level Pressure  
Sea Level Pressure 29.94 in    
Wind  
Wind Speed 8 mph (SSE)    
Max Wind Speed 24 mph    
Max Gust Speed 30 mph    
Visibility 9 miles    
Events Rain , Thunderstorm    
Averages and records for this station are not official NWS values.
T = Trace of Precipitation, MM = Missing Value Source: NWS Daily Summary

Daily Weather History Graph

Daily Weather History Graph

Search for Another Location

Airport:

Trip Planner

Search our weather history database for the weather conditions in past years. The results will help you decide how hot, cold, wet, or windy it might be!

Date:

Astronomy

Jul. 13, 2013 Rise Set
Actual Time 6:43 AM EDT 8:28 PM EDT
Civil Twilight 6:17 AM EDT 8:54 PM EDT
Nautical Twilight 5:45 AM EDT 9:26 PM EDT
Astronomical Twilight 5:12 AM EDT 9:59 PM EDT
Moon 11:27 AM EDT (7/13) 11:42 PM EDT (7/13)
Length of Visible Light 14h 37m
Length of Day
13h 45m
Waxing Crescent, 25% of the Moon is Illuminated
Jul 13
Waxing Crescent
Jul 15
First Quarter
Jul 22
Full
Jul 29
Last Quarter
Aug 6
New

Hourly Weather History & Observations

Time (EDT) Temp. Heat Index Dew Point Humidity Pressure Visibility Wind Dir Wind Speed Gust Speed Precip Events Conditions
12:53 AM 81.0 °F 87.3 °F 75.9 °F 85% 29.93 in 10.0 mi Calm Calm - N/A   Clear
1:53 AM 80.1 °F 85.1 °F 75.0 °F 85% 29.91 in 10.0 mi South 8.1 mph - N/A   Clear
2:53 AM 79.0 °F - 75.0 °F 88% 29.91 in 10.0 mi South 11.5 mph - N/A   Clear
3:53 AM 80.1 °F 85.1 °F 75.0 °F 85% 29.91 in 10.0 mi South 11.5 mph - N/A   Partly Cloudy
4:53 AM 79.0 °F - 75.0 °F 88% 29.90 in 10.0 mi South 11.5 mph - N/A   Clear
5:53 AM 80.1 °F 85.1 °F 75.0 °F 85% 29.91 in 10.0 mi South 9.2 mph - N/A   Clear
6:36 AM 80.1 °F 85.4 °F 75.9 °F 87% 29.91 in 10.0 mi SSW 6.9 mph - N/A   Mostly Cloudy
6:49 AM 78.8 °F - 75.2 °F 89% 29.91 in 10.0 mi South 6.9 mph - 0.00 in Rain Light Rain
6:53 AM 79.0 °F - 75.9 °F 90% 29.91 in 10.0 mi SSW 6.9 mph - 0.00 in Rain Light Rain
7:53 AM 81.0 °F 87.3 °F 75.9 °F 85% 29.90 in 10.0 mi South 10.4 mph - 0.00 in   Clear
8:53 AM 82.0 °F 89.4 °F 75.9 °F 82% 29.93 in 10.0 mi South 6.9 mph - N/A   Clear
9:53 AM 82.9 °F 90.2 °F 75.0 °F 77% 29.95 in 10.0 mi South 5.8 mph - N/A   Clear
10:53 AM 84.9 °F 94.1 °F 75.9 °F 74% 29.95 in 10.0 mi South 6.9 mph - N/A   Clear
11:27 AM 86.0 °F 96.0 °F 75.9 °F 72% 29.95 in 10.0 mi South 10.4 mph - N/A Thunderstorm Clear
11:53 AM 82.9 °F 89.4 °F 73.9 °F 74% 29.94 in 10.0 mi SSW 9.2 mph - 0.00 in Thunderstorm Partly Cloudy
12:49 PM 82.4 °F 88.2 °F 73.4 °F 74% 29.96 in 10.0 mi SSW 3.5 mph - N/A   Clear
12:53 PM 82.9 °F 89.4 °F 73.9 °F 74% 29.96 in 10.0 mi SSW 4.6 mph - N/A   Clear
1:53 PM 82.9 °F 89.4 °F 73.9 °F 74% 29.94 in 10.0 mi South 11.5 mph - N/A   Mostly Cloudy
2:30 PM 84.9 °F 93.3 °F 75.0 °F 72% 29.95 in 10.0 mi SSE 12.7 mph - N/A Thunderstorm Clear
2:49 PM 84.2 °F 92.3 °F 75.2 °F 74% 29.94 in 10.0 mi South 13.8 mph - N/A   Clear
2:53 PM 84.9 °F 94.1 °F 75.9 °F 74% 29.94 in 10.0 mi South 13.8 mph - N/A   Partly Cloudy
3:08 PM 84.0 °F 89.6 °F 72.0 °F 67% 29.93 in 10.0 mi South 15.0 mph - N/A Thunderstorm Partly Cloudy
3:38 PM 86.0 °F 93.8 °F 73.9 °F 67% 29.93 in 10.0 mi South 9.2 mph - N/A   Mostly Cloudy
3:53 PM 82.0 °F 87.9 °F 73.9 °F 76% 29.93 in 10.0 mi NW 9.2 mph - N/A   Overcast
4:09 PM 80.1 °F 85.4 °F 75.9 °F 87% 29.94 in 2.0 mi ENE 11.5 mph - 0.07 in Rain Light Rain
4:17 PM 80.1 °F 85.1 °F 75.0 °F 85% 29.93 in 9.0 mi ENE 8.1 mph - 0.07 in Rain Light Rain
4:29 PM 81.0 °F 86.7 °F 75.0 °F 82% 29.94 in 10.0 mi Calm Calm - 0.07 in Thunderstorm Thunderstorm
4:48 PM 78.8 °F - 75.2 °F 89% 29.95 in 8.0 mi ESE 18.4 mph - 0.07 in Rain , Thunderstorm Light Thunderstorms and Rain
4:53 PM 78.1 °F - 73.9 °F 87% 29.95 in 2.5 mi ESE 18.4 mph - 0.07 in Rain , Thunderstorm Light Thunderstorms and Rain
5:05 PM 77.0 °F - 72.0 °F 84% 29.95 in 5.0 mi SE 24.2 mph 29.9 mph 0.01 in Rain , Thunderstorm Light Thunderstorms and Rain
5:45 PM 77.0 °F - 69.1 °F 76% 29.94 in 8.0 mi ESE 10.4 mph - 0.06 in Rain , Thunderstorm Light Rain
5:53 PM 78.1 °F - 70.0 °F 76% 29.94 in 10.0 mi ESE 9.2 mph - 0.06 in Rain Light Rain
6:53 PM 80.1 °F 83.2 °F 70.0 °F 71% 29.93 in 10.0 mi Calm Calm - 0.00 in   Clear
7:53 PM 82.0 °F 85.9 °F 70.0 °F 67% 29.94 in 10.0 mi Calm Calm - N/A   Clear
8:53 PM 81.0 °F 85.8 °F 73.0 °F 77% 29.95 in 10.0 mi SE 3.5 mph - N/A   Clear
9:53 PM 81.0 °F 86.2 °F 73.9 °F 79% 29.95 in 10.0 mi SE 10.4 mph - N/A   Clear
10:53 PM 80.1 °F 85.1 °F 75.0 °F 85% 29.97 in 10.0 mi SSE 15.0 mph - N/A   Clear
11:53 PM 79.0 °F - 75.9 °F 90% 29.97 in 10.0 mi SSE 17.3 mph - N/A   Partly Cloudy